User: anonymous   Login
Location: Unspecified
(0.0000°N, 0.0000°E)
Time: 10:51:34
(UTC+02:00)
Language:

Cosmos 1072 Rocket - Orbit

View from above orbital plane
View from above orbital plane
View from above satellite
View from above satellite

Ground track
Ground track

The orbit data is extracted from the following two-line orbital elements,

1 11239U 79003B   17174.92485528 +.00000033 +00000-0 +18458-4 0  9994
2 11239 082.9395 083.5746 0041268 016.0399 032.2609 13.75806474928529
Epoch (UTC): 23 June 2017 22:11:47
Eccentricity: 0.0041268
inclination: 82.9395°
perigee height: 948 km
apogee height: 1009 km
right ascension of ascending node: 83.5746°
argument of perigee: 16.0399°
revolutions per day: 13.75806474
mean anomaly at epoch: 32.2609°
orbit number at epoch: 92852

The dashed part of the orbit path shows where the satellite is in the earth's shadow,  

DLR